Weather History for PAQT - October, 2013

Change the Weather History Date:

Thursday, October 3, 2013

  Actual Average (PAKU) Record (PAKU)
Temperature  
Mean Temperature 16 °F -  
Max Temperature 21 °F 26 °F 47 °F (1991)
Min Temperature 10 °F 20 °F 8 °F (2001)
Degree Days  
Heating Degree Days 50    
Moisture  
Dew Point 16 °F    
Average Humidity 98    
Maximum Humidity 100    
Minimum Humidity 92    
Precipitation  
Precipitation 0.00 in - - ()
Sea Level Pressure  
Sea Level Pressure 30.05 in    
Wind  
Wind Speed 4 mph (SW)    
Max Wind Speed 8 mph    
Max Gust Speed -    
Visibility 3 miles    
Events Fog , Rain , Snow    
Averages and records for this station are not official NWS values.
T = Trace of Precipitation, MM = Missing Value Source: NWS Daily Summary

Daily Weather History Graph

Daily Weather History Graph

Search for Another Location

Airport or City:

Trip Planner

Search our weather history database for the weather conditions in past years. The results will help you decide how hot, cold, wet, or windy it might be!

Date:

Astronomy

Oct. 03, 2013 Rise Set
Actual Time 8:30 AM AKDT 7:13 PM AKDT
Civil Twilight 7:28 AM AKDT 8:14 PM AKDT
Nautical Twilight 6:15 AM AKDT 9:27 PM AKDT
Astronomical Twilight 4:50 AM AKDT 10:50 PM AKDT
Moon 6:52 AM AKDT (10/3) 6:33 PM AKDT (10/3)
Length of Visible Light 12h 46m
Length of Day
10h 43m
Waning Crescent, 2% of the Moon is Illuminated
Oct 3
Waning Crescent
Oct 4
New
Oct 11
First Quarter
Oct 18
Full
Oct 26
Last Quarter

Hourly Weather History & Observations

Time (AKDT) Temp. Windchill Dew Point Humidity Pressure Visibility Wind Dir Wind Speed Gust Speed Precip Events Conditions
12:53 AM 15.1 °F 7.7 °F 14.0 °F 95% 30.10 in 10.0 mi SSW 4.6 mph - 0.00 in   Overcast
1:30 AM 15.8 °F 8.6 °F 14.0 °F 93% 30.10 in 10.0 mi SSW 4.6 mph - 0.00 in   Overcast
1:53 AM 15.1 °F 6.4 °F 14.0 °F 95% 30.10 in 10.0 mi SSW 5.8 mph - 0.00 in   Overcast
2:27 AM 15.8 °F 8.6 °F 14.0 °F 93% 30.10 in 10.0 mi SSW 4.6 mph - 0.00 in   Overcast
2:39 AM 15.8 °F 7.2 °F 15.8 °F 100% 30.10 in 2.5 mi SSW 5.8 mph - 0.00 in Snow Light Snow
2:42 AM 15.8 °F 6.1 °F 14.0 °F 93% 30.10 in 1.8 mi SSW 6.9 mph - 0.00 in Snow Light Snow
2:51 AM 15.8 °F 8.6 °F 15.8 °F 100% 30.10 in 2.5 mi SSW 4.6 mph - 0.00 in Snow Light Snow
2:53 AM 15.1 °F 6.4 °F 15.1 °F 100% 30.10 in 3.0 mi SSW 5.8 mph - 0.00 in Snow Light Snow
3:21 AM 15.8 °F - 15.8 °F 100% 30.09 in 7.0 mi Calm Calm - 0.00 in   Overcast
3:28 AM 15.8 °F 10.2 °F 15.8 °F 100% 30.09 in 2.5 mi South 3.5 mph - 0.00 in Snow Light Snow
3:41 AM 15.8 °F 8.6 °F 14.0 °F 93% 30.09 in 4.0 mi SSW 4.6 mph - 0.00 in   Overcast
3:53 AM 15.1 °F 9.4 °F 14.0 °F 95% 30.09 in 5.0 mi SSW 3.5 mph - 0.00 in Snow Light Snow
4:46 AM 15.8 °F 8.6 °F 14.0 °F 93% 30.08 in 8.0 mi SSW 4.6 mph - 0.00 in   Overcast
4:53 AM 15.1 °F 7.7 °F 14.0 °F 95% 30.08 in 6.0 mi South 4.6 mph - 0.00 in   Overcast
5:21 AM 15.8 °F 8.6 °F 15.8 °F 100% 30.08 in 1.8 mi South 4.6 mph - 0.00 in   Overcast
5:53 AM 15.1 °F - 15.1 °F 100% 30.08 in 0.5 mi Calm Calm - 0.00 in Fog Light Freezing Fog
6:05 AM 15.8 °F - 15.8 °F 100% 30.07 in 0.5 mi Calm Calm - N/A Fog Light Freezing Fog
6:51 AM 12.2 °F 0.7 °F 12.2 °F 100% 30.08 in 0.2 mi SSW 8.1 mph - N/A Fog Light Freezing Fog
6:53 AM 12.9 °F 1.6 °F 12.0 °F 96% 30.09 in 0.2 mi SSW 8.1 mph - 0.00 in Fog , Rain Light Freezing Rain
7:03 AM 12.2 °F 1.7 °F 12.2 °F 100% 30.08 in 0.2 mi SW 6.9 mph - 0.00 in Fog , Rain Light Freezing Rain
7:25 AM 10.4 °F 0.8 °F 10.4 °F 100% 30.08 in 0.5 mi WSW 5.8 mph - 0.00 in Fog , Rain Light Freezing Rain
7:53 AM 12.9 °F 2.6 °F 12.0 °F 96% 30.09 in 1.0 mi SSW 6.9 mph - 0.00 in Rain Light Freezing Rain
8:38 AM 14.0 °F 8.2 °F 12.2 °F 93% 30.07 in 0.8 mi SW 3.5 mph - 0.00 in Rain Light Freezing Rain
8:53 AM 14.0 °F - 14.0 °F 100% 30.07 in 0.5 mi Calm Calm - 0.00 in Fog , Rain Light Freezing Rain
9:19 AM 15.8 °F 10.2 °F 14.0 °F 93% 30.07 in 0.5 mi SW 3.5 mph - 0.00 in Fog , Rain Light Freezing Rain
9:34 AM 15.8 °F 10.2 °F 14.0 °F 93% 30.07 in 0.5 mi SSW 3.5 mph - 0.00 in Fog Light Freezing Fog
9:53 AM 15.1 °F 7.7 °F 15.1 °F 100% 30.07 in 0.5 mi South 4.6 mph - 0.00 in Fog Light Freezing Fog
10:53 AM 16.0 °F 10.4 °F 15.1 °F 96% 30.06 in 0.5 mi SW 3.5 mph - N/A Fog Light Freezing Fog
11:10 AM 15.8 °F 8.6 °F 15.8 °F 100% 30.06 in 0.2 mi SW 4.6 mph - 0.00 in Fog , Rain Light Freezing Rain
11:53 AM 16.0 °F 8.8 °F 16.0 °F 100% 30.06 in 0.2 mi SW 4.6 mph - 0.00 in Fog , Rain Light Freezing Rain
2:53 PM 17.1 °F - 17.1 °F 100% 30.04 in 0.2 mi Calm Calm - N/A Fog Light Freezing Fog
3:36 PM 17.6 °F - 17.6 °F 100% 30.03 in 0.2 mi Calm Calm - N/A Fog Light Freezing Fog
3:51 PM 17.6 °F 12.3 °F 17.6 °F 100% 30.02 in 0.5 mi NW 3.5 mph - N/A Fog Light Freezing Fog
3:53 PM 18.0 °F - 17.1 °F 96% 30.03 in 0.8 mi Calm Calm - N/A   Overcast
5:20 PM 17.6 °F 10.7 °F 15.8 °F 93% 30.01 in 1.2 mi WSW 4.6 mph - N/A   Overcast
5:35 PM 17.6 °F 12.3 °F 17.6 °F 100% 30.01 in 0.5 mi WSW 3.5 mph - N/A Fog Light Freezing Fog
5:53 PM 18.0 °F 12.7 °F 17.1 °F 96% 30.01 in 0.5 mi WSW 3.5 mph - N/A Fog Light Freezing Fog
8:11 PM 19.4 °F 11.5 °F 17.6 °F 93% 30.00 in 1.5 mi WNW 5.8 mph - N/A   Overcast
8:38 PM 19.4 °F 12.8 °F 19.4 °F 100% 29.99 in 1.0 mi WNW 4.6 mph - N/A   Overcast
8:53 PM 19.9 °F 13.4 °F 19.9 °F 100% 29.99 in 1.5 mi WNW 4.6 mph - N/A   Overcast
9:19 PM 19.4 °F 12.8 °F 19.4 °F 100% 29.99 in 2.5 mi WNW 4.6 mph - N/A   Overcast
9:21 PM 19.4 °F 11.5 °F 19.4 °F 100% 29.99 in 3.0 mi WNW 5.8 mph - 0.00 in Rain Light Freezing Rain
9:31 PM 19.4 °F 11.5 °F 19.4 °F 100% 29.99 in 1.8 mi WNW 5.8 mph - 0.00 in Rain Light Freezing Rain
9:53 PM 19.9 °F 12.1 °F 19.9 °F 100% 29.99 in 1.2 mi West 5.8 mph - 0.00 in Rain Light Freezing Rain
10:01 PM 19.4 °F 12.8 °F 19.4 °F 100% 29.98 in 2.0 mi WNW 4.6 mph - 0.00 in   Overcast
10:16 PM 19.4 °F 12.8 °F 19.4 °F 100% 29.98 in 5.0 mi WNW 4.6 mph - 0.00 in   Overcast
10:45 PM 19.4 °F 12.8 °F 19.4 °F 100% 29.98 in 10.0 mi WNW 4.6 mph - 0.00 in   Overcast
10:53 PM 21.0 °F 14.6 °F 19.9 °F 96% 29.98 in 10.0 mi WNW 4.6 mph - 0.00 in   Overcast
11:53 PM 21.9 °F - 19.9 °F 92% 29.97 in 10.0 mi Calm Calm - N/A   Overcast